CAPE
75 69 49 70 76 90 95 99 108 125 153 147 117 97 134 181 170 182 186 147 107 66 19 41 27 21 1 15 0 0 0 14 0 0 0 0 0 0 0 0 0 0 0 0 0 0 0
72 69 61 85 80 87 94 100 118 153 175 168 192 183 127 38 110 208 165 169 155 88 11 14 43 24 0 11 0 0 0 1 0 0 0 0 0 0 0 0 0 0 0 0 0 0 0
76 70 77 93 86 99 99 118 124 154 154 166 162 161 156 124 147 177 112 95 95 70 38 1 39 63 24 0 0 0 0 12 0 0 0 0 0 0 0 0 0 0 0 0 0 0 0
49 76 85 87 96 92 103 104 128 164 177 213 208 144 131 111 108 84 46 74 74 47 23 19 19 77 16 0 0 0 0 0 0 0 0 0 0 0 0 0 0 0 0 0 0 0 0
36 32 26 57 93 94 96 105 126 172 190 189 203 227 216 174 162 130 76 61 50 59 98 61 32 33 0 0 0 0 0 0 0 0 0 0 0 0 0 0 0 0 0 0 0 0 0
62 82 77 30 23 29 55 123 123 141 179 191 214 233 202 212 179 125 101 111 4 13 3 99 39 2 0 0 0 0 0 0 0 0 0 0 0 0 0 0 0 0 0 0 0 0 0
74 86 82 86 79 25 26 26 104 125 171 174 186 227 256 256 222 134 29 0 0 0 0 0 0 0 0 0 0 0 0 0 0 0 0 0 0 0 0 0 0 0 0 0 0 0 0
68 97 77 90 91 82 34 28 25 24 65 130 177 156 185 224 269 235 1 0 0 0 0 0 0 0 0 0 4 0 33 0 0 0 0 0 0 0 0 0 0 0 0 0 0 0 0
51 78 93 82 80 101 105 96 108 111 30 15 37 96 103 85 171 15 0 0 0 0 0 0 0 0 0 3 21 0 51 0 0 0 0 0 0 0 0 0 0 0 0 0 0 0 0
51 61 72 91 96 89 94 100 104 109 144 131 143 95 79 68 1 0 4 0 0 0 6 0 6 1 55 13 10 0 41 0 0 0 0 0 0 0 0 0 0 0 0 0 0 0 0
33 36 59 59 80 85 99 84 117 107 128 125 112 143 158 107 9 2 26 0 0 16 0 11 1 0 0 0 10 7 14 2 0 0 0 0 0 0 0 0 0 0 0 0 0 0 0
48 53 53 53 43 63 69 44 36 98 87 197 102 154 273 0 0 10 27 10 3 0 0 0 0 1 0 10 7 6 32 4 0 0 0 0 0 0 0 0 0 0 0 0 0 0 0
53 46 45 46 40 43 36 40 25 31 22 99 55 100 115 87 15 17 26 14 0 0 0 9 4 1 1 0 4 5 38 29 10 13 0 0 0 0 0 0 0 0 0 0 0 0 0
45 56 54 62 56 48 29 30 26 18 18 76 14 8 32 0 1 17 2 0 0 0 0 8 7 0 3 14 8 12 12 24 6 0 0 0 0 0 0 0 0 0 0 0 0 0 0
65 58 63 69 58 46 43 32 23 19 23 18 0 0 0 0 0 0 0 0 0 12 2 3 0 0 1 11 1 4 5 2 0 0 0 0 0 0 0 0 0 0 0 0 0 0 0
56 67 62 62 65 63 42 32 27 17 19 4 0 0 0 0 0 0 0 0 0 1 0 0 4 0 0 1 0 2 8 0 0 0 0 0 0 0 0 0 0 0 0 0 0 0 0
63 57 63 60 64 55 41 35 28 16 16 0 0 0 0 0 0 0 0 1 0 0 0 1 7 5 4 7 4 5 4 0 0 0 0 0 0 0 0 0 0 0 0 0 0 0 0
58 63 55 56 58 66 59 36 23 17 16 0 0 0 0 0 0 0 0 0 0 0 0 15 14 5 3 12 11 9 12 8 0 0 0 0 0 0 0 0 0 0 0 0 0 0 0
52 59 63 61 59 57 59 38 19 6 10 0 0 0 0 0 0 0 0 0 0 0 2 0 0 3 0 1 3 17 4 3 0 0 0 0 0 0 0 0 0 0 0 0 0 0 0
54 53 55 54 49 57 49 46 19 2 1 0 0 0 0 0 0 0 4 0 6 0 0 0 0 13 0 0 15 0 0 3 0 0 0 1 0 0 0 0 0 0 0 0 0 0 0
43 46 46 41 43 54 55 44 32 7 0 0 0 0 0 0 0 0 0 0 0 0 0 0 0 0 4 0 0 0 0 0 0 0 0 7 0 0 0 0 0 0 0 0 0 0 0
36 40 41 36 37 45 54 50 30 18 0 0 0 4 1 6 0 0 0 0 0 0 2 0 0 0 1 6 1 0 0 0 0 5 0 1 0 0 0 0 0 0 0 0 0 0 0
33 33 33 34 35 37 40 44 39 25 2 0 0 0 9 0 0 0 0 0 0 1 0 0 4 10 0 0 0 1 0 1 0 6 19 1 0 0 0 0 0 0 0 0 0 0 0
29 28 29 32 30 28 32 33 32 26 10 1 6 4 6 0 0 0 0 0 0 0 1 0 0 3 0 7 0 0 0 0 0 1 14 3 0 0 0 0 0 0 0 0 0 0 0
30 31 32 32 31 24 22 21 18 15 8 0 0 0 17 0 0 0 0 0 0 0 0 0 0 9 12 34 2 0 3 9 0 1 1 6 2 0 0 0 0 0 0 0 0 0 0
24 23 27 28 29 20 16 14 9 5 3 0 0 0 8 1 0 0 0 0 0 0 0 0 0 0 10 7 0 0 0 0 0 2 0 5 2 0 0 0 0 0 0 0 0 0 0
14 17 27 25 25 16 10 8 8 4 1 0 0 0 3 0 0 0 0 0 1 2 0 0 0 0 0 2 0 0 2 0 0 0 1 0 1 0 0 0 0 0 0 0 0 0 0
14 24 22 21 23 14 6 8 11 8 1 0 0 0 2 11 1 0 2 2 1 1 1 0 0 0 0 0 0 1 0 0 0 0 1 4 0 0 0 0 0 0 0 0 0 0 0
14 19 19 16 21 10 3 6 9 11 7 0 0 0 0 15 0 0 0 0 0 1 22 0 0 0 3 1 0 0 0 0 0 0 0 0 0 0 0 0 0 0 0 0 0 0 0
CIN
-0 -0 -0 -0 -0 -0 -0 -0 -0 -0 -0 -0 -0 -4 -6 -3 -0 -0 -0 -0 -8 -4 -2 -14 -20 -0 -0 -0 -0 -0 -0 -0 -0 -0 -0 -0 -0 -0 -0 -0 -0 -0 -0 -0 -0 -0 -0
-0 -0 -0 -0 -0 -0 -0 -0 -0 -0 -0 -0 -2 -3 -4 -28 -4 -0 -0 -0 -0 -8 -24 -2 -0 -3 -0 -0 -0 -0 -0 -5 -0 -0 -0 -0 -0 -0 -0 -0 -0 -0 -0 -0 -0 -0 -0
-0 -0 -0 -0 -0 -0 -0 -0 -0 -0 -0 -0 -0 -0 -0 -1 -2 -0 -0 -6 -4 -19 -16 -0 -0 -0 -0 -0 -0 -0 -0 -38 -0 -0 -0 -0 -0 -0 -0 -0 -0 -0 -0 -0 -0 -0 -0
-0 -0 -0 -0 -0 -0 -0 -0 -0 -0 -0 -0 -0 -0 -0 -0 -0 -1 -12 -20 -29 -36 -44 -45 -0 -0 -0 -0 -0 -0 -0 -0 -0 -0 -0 -0 -0 -0 -0 -0 -0 -0 -0 -0 -0 -0 -0
-0 -0 -0 -0 -0 -0 -0 -0 -0 -0 -0 -0 -0 -0 -0 -0 -0 -0 -3 -42 -62 -53 -36 -8 -0 -0 -0 -0 -0 -0 -0 -0 -0 -0 -0 -0 -0 -0 -0 -0 -0 -0 -0 -0 -0 -0 -0
-0 -0 -0 -0 -0 -0 -0 -0 -0 -0 -0 -0 -0 -0 -0 -0 -0 -0 -6 -33 -121 -22 -16 -4 -1 -0 -0 -0 -0 -0 -0 -0 -0 -0 -0 -0 -0 -0 -0 -0 -0 -0 -0 -0 -0 -0 -0
-0 -0 -0 -0 -0 -0 -0 -0 -0 -0 -0 -0 -0 -0 -0 -0 -0 -0 -2 -0 -0 -0 -0 -0 -0 -0 -0 -0 -0 -0 -0 -0 -0 -0 -0 -0 -0 -0 -0 -0 -0 -0 -0 -0 -0 -0 -0
-0 -0 -0 -0 -0 -0 -0 -0 -0 -0 -0 -0 -0 -0 -0 -0 -0 -2 -5 -0 -0 -0 -0 -0 -0 -0 -0 -0 -0 -0 -37 -0 -0 -0 -0 -0 -0 -0 -0 -0 -0 -0 -0 -0 -0 -0 -0
-0 -0 -0 -0 -0 -0 -0 -0 -0 -0 -0 -0 -0 -0 -0 -4 -3 -7 -0 -0 -0 -0 -0 -0 -0 -0 -0 -2 -0 -0 -13 -0 -0 -0 -0 -0 -0 -0 -0 -0 -0 -0 -0 -0 -0 -0 -0
-0 -0 -0 -0 -0 -0 -0 -0 -0 -0 -0 -0 -0 -0 -8 -10 -7 -0 -10 -0 -0 -0 -0 -0 -0 -4 -0 -8 -0 -0 -20 -0 -0 -0 -0 -0 -0 -0 -0 -0 -0 -0 -0 -0 -0 -0 -0
-0 -0 -0 -0 -0 -0 -0 -0 -0 -0 -0 -0 -0 -0 -2 -0 -0 -4 -6 -0 -0 -0 -0 -0 -0 -0 -0 -0 -0 -11 -25 -20 -0 -0 -0 -0 -0 -0 -0 -0 -0 -0 -0 -0 -0 -0 -0
-0 -0 -0 -0 -0 -0 -0 -0 -0 -0 -0 -0 -5 -0 -1 -0 -0 -23 -39 -46 -9 -0 -0 -0 -0 -0 -0 -0 -0 -10 -7 -34 -0 -0 -0 -0 -0 -0 -0 -0 -0 -0 -0 -0 -0 -0 -0
-0 -0 -0 -0 -0 -0 -0 -0 -0 -0 -0 -2 -27 -24 -21 -16 -24 -26 -35 -19 -0 -0 -0 -16 -7 -6 -0 -0 -0 -0 -17 -1 -6 -4 -0 -0 -0 -0 -0 -0 -0 -0 -0 -0 -0 -0 -0
-0 -0 -0 -0 -0 -0 -0 -0 -0 -0 -0 -3 -62 -70 -22 -0 -42 -87 -9 -0 -0 -0 -1 -4 -1 -0 -0 -0 -0 -0 -0 -0 -41 -0 -0 -0 -0 -0 -0 -0 -0 -0 -0 -0 -0 -0 -0
-0 -0 -0 -0 -0 -0 -0 -0 -0 -0 -0 -0 -0 -0 -0 -0 -0 -0 -0 -0 -0 -0 -8 -0 -0 -0 -0 -0 -0 -0 -0 -2 -0 -0 -0 -0 -0 -0 -0 -0 -0 -0 -0 -0 -0 -0 -0
-0 -0 -0 -0 -0 -0 -0 -0 -0 -0 -0 -0 -0 -0 -0 -0 -0 -0 -0 -1 -1 -1 -0 -0 -3 -0 -0 -0 -0 -0 -0 -0 -0 -0 -0 -0 -0 -0 -0 -0 -0 -0 -0 -0 -0 -0 -0
-0 -0 -0 -0 -0 -0 -0 -0 -0 -0 -0 -0 -0 -0 -0 -0 -0 -0 -0 -0 -1 -0 -0 -0 -0 -1 -1 -0 -0 -0 -0 -0 -0 -0 -0 -0 -0 -0 -0 -0 -0 -0 -0 -0 -0 -0 -0
-0 -0 -0 -0 -0 -0 -0 -0 -0 -0 -0 -0 -0 -0 -0 -0 -0 -0 -0 -0 -0 -0 -0 -0 -0 -0 -0 -0 -0 -0 -0 -0 -0 -0 -0 -0 -0 -0 -0 -0 -0 -0 -0 -0 -0 -0 -0
-0 -0 -0 -0 -0 -0 -0 -0 -0 -0 -0 -3 -1 -0 -0 -0 -0 -0 -0 -0 -0 -0 -0 -0 -0 -0 -0 -0 -0 -0 -0 -0 -0 -0 -0 -0 -0 -0 -0 -0 -0 -0 -0 -0 -0 -0 -0
-0 -0 -0 -0 -0 -0 -0 -0 -0 -0 -0 -0 -0 -0 -0 -0 -0 -0 -0 -0 -0 -0 -0 -0 -0 -2 -0 -0 -0 -0 -0 -0 -0 -0 -0 -0 -0 -0 -0 -0 -0 -0 -0 -0 -0 -0 -0
-0 -0 -0 -0 -0 -0 -0 -0 -0 -0 -0 -0 -0 -0 -1 -0 -0 -0 -0 -0 -0 -0 -0 -0 -0 -0 -0 -0 -0 -0 -0 -0 -0 -0 -0 -0 -0 -0 -0 -0 -0 -0 -0 -0 -0 -0 -0
-0 -0 -0 -0 -0 -0 -0 -0 -0 -0 -0 -0 -0 -0 -8 -1 -0 -0 -0 -0 -0 -0 -1 -0 -0 -0 -5 -0 -0 -0 -0 -0 -0 -0 -0 -2 -0 -0 -0 -0 -0 -0 -0 -0 -0 -0 -0
-0 -0 -0 -0 -0 -0 -0 -0 -0 -0 -3 -0 -17 -0 -0 -0 -0 -0 -0 -0 -0 -0 -0 -0 -0 -0 -0 -0 -0 -0 -0 -0 -0 -0 -0 -0 -0 -0 -0 -0 -0 -0 -0 -0 -0 -0 -0
-0 -0 -0 -0 -0 -0 -0 -0 -0 -0 -2 -6 -13 -5 -0 -0 -0 -0 -0 -0 -0 -0 -0 -0 -0 -0 -0 -15 -0 -0 -0 -0 -0 -0 -0 -0 -0 -0 -0 -0 -0 -0 -0 -0 -0 -0 -0
-0 -0 -0 -0 -0 -0 -0 -0 -0 -0 -0 -0 -0 -0 -1 -0 -0 -0 -0 -0 -0 -0 -0 -0 -0 -0 -0 -0 -0 -0 -0 -0 -0 -0 -0 -0 -0 -0 -0 -0 -0 -0 -0 -0 -0 -0 -0
-0 -0 -0 -0 -0 -0 -0 -0 -0 -0 -0 -0 -0 -7 -6 -0 -0 -0 -0 -0 -0 -0 -0 -0 -0 -0 -0 -0 -0 -0 -0 -0 -0 -0 -0 -0 -0 -0 -0 -0 -0 -0 -0 -0 -0 -0 -0
-0 -0 -0 -0 -0 -0 -0 -0 -0 -0 -0 -0 -0 -7 -3 -0 -0 -0 -0 -0 -0 -1 -1 -0 -0 -0 -0 -0 -0 -0 -3 -0 -0 -0 -0 -0 -0 -0 -0 -0 -0 -0 -0 -0 -0 -0 -0
-0 -0 -0 -0 -0 -0 -0 -0 -0 -0 -0 -0 -0 -0 -1 -1 -2 -0 -0 -0 -0 -0 -1 -0 -0 -0 -0 -0 -0 -0 -0 -0 -0 -0 -1 -1 -2 -0 -0 -0 -0 -0 -0 -0 -0 -0 -0
-0 -0 -0 -0 -0 -0 -0 -0 -0 -0 -1 -0 -0 -0 -0 -0 -0 -0 -0 -0 -0 -7 -0 -0 -0 -0 -0 -0 -0 -0 -0 -0 -0 -0 -0 -0 -0 -0 -0 -0 -0 -0 -0 -0 -0 -0 -0
Wind_Speed
26 25 27 26 25 25 25 24 23 21 18 16 12 9 9 8 8 10 11 11 13 13 13 11 8 8 11 5 9 5 8 6 16 9 11 10 8 7 7 6 6 7 3 3 4 3 3
27 26 26 27 26 26 25 23 23 20 19 17 14 12 11 11 11 11 13 13 12 13 13 11 10 4 2 15 8 8 7 4 14 14 9 7 9 7 7 5 6 9 7 1 1 3 2
27 27 26 26 27 26 25 25 22 20 18 16 16 14 12 12 11 12 14 15 15 14 14 13 10 2 9 17 14 5 4 6 11 15 11 8 3 7 7 4 6 5 4 2 3 3 3
25 27 27 27 27 27 26 25 24 22 19 18 17 15 14 14 14 15 16 18 17 17 15 14 13 4 8 10 13 16 12 1 6 4 2 3 7 4 3 2 4 9 6 5 4 7 1
25 25 25 26 26 27 26 26 24 23 22 20 18 18 16 15 16 16 18 21 21 19 15 11 6 3 6 12 8 13 9 4 6 4 4 4 5 4 2 5 4 3 6 5 2 6 5
26 26 25 23 25 26 26 26 25 24 22 21 20 19 18 17 17 19 20 23 12 5 3 3 0 3 6 5 6 4 7 6 5 10 4 5 4 5 2 6 15 8 7 3 8 6 2
29 27 28 25 25 24 24 25 25 24 24 22 21 20 20 19 19 21 13 6 7 5 4 6 3 6 3 2 12 10 8 8 5 8 8 5 7 17 15 7 5 7 9 6 3 6 6
27 29 29 28 25 25 24 24 24 25 23 23 23 22 22 23 23 17 3 4 3 2 11 6 9 16 6 4 7 15 14 10 9 15 7 5 20 11 9 10 6 6 9 5 2 4 6
28 29 29 28 28 28 26 25 25 24 23 23 23 23 22 23 23 4 2 2 5 2 4 7 5 6 7 10 9 15 20 8 15 9 16 11 3 9 8 8 11 3 9 6 6 5 3
27 28 30 30 30 28 28 28 27 27 26 25 24 23 21 21 6 5 2 5 5 2 3 6 7 3 7 3 8 12 15 14 6 17 13 3 6 17 10 14 13 9 6 7 8 7 6
27 26 28 29 29 31 29 28 28 28 27 28 28 24 20 12 3 3 2 5 4 2 4 8 7 10 14 11 12 11 17 4 14 11 9 10 14 18 19 16 10 7 7 8 7 6 5
28 28 27 27 28 29 30 29 29 29 30 29 28 24 17 3 1 4 3 3 0 7 3 4 3 6 9 5 7 5 19 2 5 7 4 7 7 11 11 6 12 6 8 7 5 4 3
28 27 27 27 28 28 28 29 30 30 31 31 30 23 7 0 4 5 2 1 6 5 2 5 4 7 7 3 3 7 24 19 10 14 13 5 5 3 10 9 6 6 12 1 2 1 6
27 28 28 30 29 30 29 29 30 31 31 31 27 13 5 3 6 4 3 7 8 5 3 4 7 5 4 3 4 6 21 20 15 3 7 13 7 12 10 12 13 14 13 8 10 6 3
28 29 29 29 29 30 31 30 30 31 30 30 16 5 3 5 6 3 6 6 4 5 5 10 10 4 6 6 4 6 12 22 11 11 9 13 7 4 5 4 14 8 12 7 9 3 5
28 29 29 29 30 30 30 30 31 31 31 27 2 3 3 7 5 5 6 3 3 4 9 4 3 4 4 7 6 9 8 14 11 10 3 6 5 1 3 4 2 19 10 5 1 9 5
28 28 30 29 29 29 29 31 30 31 32 25 4 4 4 8 4 6 4 3 5 8 11 3 4 5 1 3 1 3 4 4 20 11 3 4 6 3 5 10 17 4 12 3 6 6 11
26 28 27 29 29 30 31 30 30 31 31 9 2 4 5 5 6 3 2 7 8 7 10 4 3 4 3 4 5 2 5 6 12 15 6 4 5 8 10 1 3 4 13 6 9 12 1
27 27 28 28 28 29 30 30 30 30 29 4 3 2 5 6 6 7 7 5 2 9 8 9 6 6 2 4 5 5 4 8 15 10 5 6 2 6 3 3 2 13 9 19 12 4 9
26 27 28 28 28 28 29 29 29 30 30 4 3 5 5 5 2 3 8 5 9 11 5 8 9 4 8 4 2 7 9 4 15 10 13 13 3 9 15 23 6 3 12 5 9 5 9
27 27 27 28 27 27 28 27 27 27 29 4 4 2 2 4 5 4 5 4 8 8 4 5 4 3 6 5 8 5 2 9 7 10 4 7 4 4 5 8 14 8 14 10 15 18 14
26 26 27 27 27 27 27 26 25 22 20 5 3 4 4 2 2 6 4 3 2 5 5 6 4 6 5 9 11 12 7 5 4 8 8 5 2 3 5 8 11 8 15 16 16 19 17
25 26 27 27 27 27 26 24 23 20 9 3 2 4 3 4 3 4 3 6 8 13 6 10 13 14 13 15 6 12 12 12 12 8 5 5 5 5 5 3 4 4 17 21 16 7 18
24 25 26 27 27 27 26 24 21 16 9 2 1 1 3 5 2 2 4 4 11 11 8 14 12 8 5 9 16 9 11 13 14 18 11 5 3 5 6 4 8 8 7 17 22 15 18
24 25 26 28 29 28 27 23 19 15 11 2 1 1 2 5 3 4 10 5 11 9 4 10 7 7 10 6 4 4 4 4 10 19 19 14 4 4 6 12 5 2 8 11 11 15 8
24 25 26 28 29 28 26 23 18 14 11 3 1 1 1 3 5 4 4 3 4 7 7 6 8 4 1 4 3 3 6 6 5 2 15 15 15 4 4 5 12 22 10 3 7 12 10
26 26 26 28 29 28 26 22 17 13 10 3 2 1 2 2 4 2 2 4 5 7 4 6 12 9 5 4 2 3 4 1 3 5 6 7 7 13 6 4 7 5 5 6 8 10 4
25 26 26 27 29 28 25 20 16 12 9 4 3 1 1 2 7 2 2 2 3 4 4 8 8 3 4 6 4 5 4 3 1 3 3 6 8 5 4 3 7 4 4 8 4 6 4
25 26 26 27 28 27 24 18 15 13 8 4 1 2 1 3 5 3 7 6 5 3 4 3 4 3 3 4 4 5 4 5 6 3 4 2 6 2 3 3 3 5 4 6 5 4 4
Wind_Direction
15 14 11 5 10 3 3 3 1 355 351 349 338 335 330 326 320 315 314 315 317 321 327 320 339 0 329 210 246 269 331 193 193 168 181 173 157 139 174 183 139 186 253 177 224 331 132
17 12 16 8 6 7 5 5 4 7 9 4 2 355 347 334 327 317 313 311 301 310 318 310 311 42 325 244 246 278 269 196 186 177 191 155 183 184 153 187 171 191 211 71 180 211 59
14 12 15 12 7 11 9 4 5 5 4 5 1 0 346 331 325 321 318 313 304 298 295 303 300 261 267 260 299 344 261 188 179 179 172 186 170 162 141 155 201 120 166 145 220 217 141
10 10 12 11 9 12 11 8 3 3 2 358 354 351 344 336 329 328 321 310 301 293 287 279 275 235 259 276 276 272 292 211 128 165 121 137 143 179 184 203 74 130 92 148 241 157 124
10 6 4 5 7 8 10 8 7 2 360 359 356 350 346 336 328 326 318 309 298 294 274 248 226 211 258 313 237 247 223 264 152 167 241 132 142 184 119 123 89 172 176 166 179 219 133
14 8 3 5 358 1 2 4 4 3 2 1 357 353 349 343 336 326 320 306 301 343 24 143 359 180 212 247 220 239 190 200 154 144 155 170 145 154 120 143 188 164 151 169 169 204 161
16 12 8 7 3 2 359 358 359 1 360 358 356 350 344 341 333 327 333 350 14 349 29 222 210 235 193 320 274 228 166 156 121 156 168 187 158 198 190 148 149 131 128 154 213 183 131
13 12 11 8 6 3 2 358 354 352 355 355 351 347 343 339 332 321 9 50 91 212 305 270 245 261 286 83 305 212 159 172 154 179 129 123 215 198 143 166 164 158 154 185 104 167 148
9 5 11 11 12 6 2 357 354 352 352 348 342 341 339 336 330 38 348 86 150 52 299 307 258 240 232 159 246 220 178 155 170 166 186 184 197 154 166 163 185 187 162 176 156 122 61
13 9 6 5 5 9 6 5 2 359 354 350 343 338 336 336 2 329 54 160 160 153 290 319 294 271 168 120 272 227 185 151 166 191 180 204 185 166 184 195 173 192 192 156 135 109 186
13 18 8 3 3 357 1 2 1 358 358 354 341 334 334 339 292 328 310 179 181 244 3 352 325 305 305 167 316 179 187 212 177 158 150 197 172 180 186 196 163 204 154 158 161 150 119
14 20 12 6 2 1 357 356 356 354 353 350 344 337 341 5 360 251 184 198 68 43 338 317 232 323 4 321 263 190 182 188 137 145 85 195 179 174 179 155 171 140 99 58 59 85 251
15 16 12 9 7 1 356 353 355 354 351 347 344 338 355 255 332 291 253 288 40 84 238 291 317 322 339 279 272 268 184 189 168 160 166 187 191 142 142 137 170 160 147 101 359 239 219
14 12 12 9 11 3 354 356 355 352 351 345 343 347 355 33 320 323 19 48 57 250 340 329 312 317 355 319 214 255 186 189 232 175 132 162 190 175 179 185 181 191 173 157 175 165 193
10 11 12 9 11 5 358 357 354 353 352 346 347 348 21 328 339 25 62 47 221 358 330 312 318 350 16 341 348 269 201 194 211 204 152 171 201 154 175 153 155 189 207 165 97 357 119
10 7 8 10 5 7 4 359 354 353 352 348 347 355 332 322 360 44 71 337 315 332 324 302 314 32 315 339 5 351 173 202 212 184 239 176 119 201 153 112 336 185 152 153 36 157 206
5 11 4 8 5 5 5 0 357 353 353 345 36 41 280 332 54 45 94 265 307 308 335 310 322 309 301 298 267 288 307 292 203 208 167 163 119 206 132 207 185 140 194 179 127 150 200
6 4 10 4 5 3 2 5 358 356 354 3 11 46 309 9 44 16 7 313 308 314 337 353 307 249 290 321 313 301 321 298 335 220 176 221 135 163 192 277 262 147 198 151 191 210 203
5 4 3 5 4 2 3 2 359 357 358 332 28 295 331 55 49 3 326 303 281 341 354 349 312 21 324 313 325 279 303 330 10 320 208 190 227 123 133 328 342 191 199 204 212 93 194
5 4 3 4 5 2 3 0 3 357 357 43 57 22 338 32 20 65 348 336 349 337 309 351 293 342 348 352 10 312 301 332 340 299 284 337 276 192 198 205 109 133 191 181 194 175 203
4 4 4 4 2 1 0 2 1 1 354 61 31 36 128 303 334 5 332 309 343 343 307 297 321 63 30 314 309 259 24 341 328 332 247 177 189 4 340 165 191 168 192 176 202 216 205
4 4 3 2 0 359 0 360 359 10 1 64 64 344 335 283 332 340 337 331 279 291 258 300 225 280 320 263 262 293 332 28 294 339 330 156 199 100 315 316 209 204 207 199 214 211 225
5 5 3 1 359 358 357 358 359 4 45 60 338 313 281 308 2 47 249 325 307 314 263 236 302 301 280 277 276 269 262 257 267 294 317 310 150 138 229 307 80 308 205 205 216 199 210
3 4 2 1 359 357 356 355 358 0 17 129 253 277 293 283 64 222 301 275 304 308 275 288 304 281 254 338 317 262 249 251 243 249 223 267 284 166 230 67 230 240 226 216 216 212 219
0 1 359 359 359 357 356 356 357 360 358 99 341 58 317 304 215 322 326 279 305 295 276 283 315 265 283 273 269 320 222 218 228 228 220 206 226 164 172 211 247 288 251 189 182 241 221
357 357 357 357 358 359 356 355 359 4 359 77 279 180 318 317 273 225 314 286 321 331 324 276 321 334 271 234 182 229 210 198 213 227 192 200 205 228 150 170 208 231 217 131 91 262 206
354 355 356 355 357 358 358 357 358 4 2 87 287 194 340 260 287 88 313 324 326 307 282 305 337 331 347 341 269 257 282 294 223 176 176 171 182 218 191 205 288 276 322 133 137 253 268
354 354 355 355 356 359 357 360 357 5 8 79 277 254 179 257 292 225 226 285 322 343 337 310 330 359 316 6 341 335 296 234 281 236 184 190 183 188 164 148 259 30 304 178 259 325 348
352 353 354 354 355 358 356 0 358 0 21 62 355 328 332 227 256 268 246 219 184 229 293 323 252 278 325 344 356 321 309 332 329 238 24 256 326 201 181 156 360 357 351 317 305 265 296